Time,TemperatureF,DewpointF,PressureIn,WindDirection,WindDirectionDegrees,WindSpeedMPH,WindSpeedGustMPH,Humidity,HourlyPrecipIn,Conditions,Clouds,dailyrainin,SolarRadiationWatts/m^2,SoftwareType,DateUTC
2013-07-21 00:00:00,73.0,68.0,-100.00,SE,146,1.0,9.0,83,0.00,,,0.00,0.000000,,2013-07-21 04:00:00,
2013-07-21 00:01:00,73.0,68.0,-100.00,SE,146,1.0,9.0,83,0.00,,,0.00,0.000000,,2013-07-21 04:01:00,
2013-07-21 00:32:00,70.0,68.0,-100.00,NE,37,0.0,5.0,93,0.00,,,0.00,0.000000,,2013-07-21 04:32:00,
2013-07-21 00:43:00,70.0,68.0,-100.00,NE,37,0.0,5.0,93,0.00,,,0.00,0.000000,,2013-07-21 04:43:00,
2013-07-21 00:53:00,70.0,68.0,-100.00,NE,37,0.0,5.0,93,0.00,,,0.00,0.000000,,2013-07-21 04:53:00,
2013-07-21 01:02:00,70.0,68.0,-100.00,NE,37,0.0,5.0,93,0.00,,,0.00,0.000000,,2013-07-21 05:02:00,
2013-07-21 01:32:00,71.0,68.0,-100.00,NE,56,0.0,8.0,90,0.00,,,0.00,0.000000,,2013-07-21 05:32:00,
2013-07-21 01:42:00,71.0,68.0,-100.00,NE,56,0.0,8.0,90,0.00,,,0.00,0.000000,,2013-07-21 05:42:00,
2013-07-21 01:52:00,71.0,68.0,-100.00,NE,56,0.0,8.0,90,0.00,,,0.00,0.000000,,2013-07-21 05:52:00,
2013-07-21 02:01:00,71.0,68.0,-100.00,NE,56,0.0,8.0,90,0.00,,,0.00,0.000000,,2013-07-21 06:01:00,
2013-07-21 02:32:00,69.0,68.0,-100.00,NNW,336,0.0,2.0,96,0.00,,,0.00,0.000000,,2013-07-21 06:32:00,
2013-07-21 02:43:00,69.0,68.0,-100.00,NNW,336,0.0,2.0,96,0.00,,,0.00,0.000000,,2013-07-21 06:43:00,
2013-07-21 02:53:00,69.0,68.0,-100.00,NNW,336,0.0,2.0,96,0.00,,,0.00,0.000000,,2013-07-21 06:53:00,
2013-07-21 03:01:00,69.0,68.0,-100.00,NNW,336,0.0,2.0,96,0.00,,,0.00,0.000000,,2013-07-21 07:01:00,
2013-07-21 03:32:00,68.0,67.0,-100.00,NNW,348,0.0,2.0,97,0.00,,,0.00,0.000000,,2013-07-21 07:32:00,
2013-07-21 03:43:00,68.0,67.0,-100.00,NNW,348,0.0,2.0,97,0.00,,,0.00,0.000000,,2013-07-21 07:43:00,
2013-07-21 03:53:00,68.0,67.0,-100.00,NNW,348,0.0,2.0,97,0.00,,,0.00,0.000000,,2013-07-21 07:53:00,
2013-07-21 04:02:00,68.0,67.0,-100.00,NNW,348,0.0,2.0,97,0.00,,,0.00,0.000000,,2013-07-21 08:02:00,
2013-07-21 04:33:00,67.0,66.0,-100.00,North,351,0.0,3.0,98,0.00,,,0.00,0.000000,,2013-07-21 08:33:00,
2013-07-21 04:43:00,67.0,66.0,-100.00,North,351,0.0,3.0,98,0.00,,,0.00,0.000000,,2013-07-21 08:43:00,
2013-07-21 04:52:00,67.0,66.0,-100.00,North,351,0.0,3.0,98,0.00,,,0.00,0.000000,,2013-07-21 08:52:00,
2013-07-21 05:02:00,67.0,66.0,-100.00,North,351,0.0,3.0,98,0.00,,,0.00,0.000000,,2013-07-21 09:02:00,
2013-07-21 05:32:00,67.0,66.0,-100.00,North,2,0.0,2.0,98,0.00,,,0.00,0.000000,,2013-07-21 09:32:00,
2013-07-21 05:42:00,67.0,66.0,-100.00,North,2,0.0,2.0,98,0.00,,,0.00,0.000000,,2013-07-21 09:42:00,
2013-07-21 05:52:00,67.0,66.0,-100.00,North,2,0.0,2.0,98,0.00,,,0.00,0.000000,,2013-07-21 09:52:00,
2013-07-21 06:02:00,67.0,66.0,-100.00,North,2,0.0,2.0,98,0.00,,,0.00,0.000000,,2013-07-21 10:02:00,
2013-07-21 06:32:00,67.0,66.0,-100.00,SSW,206,2.0,7.0,98,0.00,,,0.00,0.000000,,2013-07-21 10:32:00,
2013-07-21 06:43:00,67.0,66.0,-100.00,SSW,206,2.0,7.0,98,0.00,,,0.00,0.000000,,2013-07-21 10:43:00,
2013-07-21 06:52:00,67.0,66.0,-100.00,SSW,206,2.0,7.0,98,0.00,,,0.00,0.000000,,2013-07-21 10:52:00,
2013-07-21 07:02:00,67.0,66.0,-100.00,SSW,206,2.0,7.0,98,0.00,,,0.00,0.000000,,2013-07-21 11:02:00,
2013-07-21 07:33:00,69.0,68.0,-100.00,SSE,155,2.0,6.0,96,0.00,,,0.00,4.000000,,2013-07-21 11:33:00,
2013-07-21 07:43:00,69.0,68.0,-100.00,SSE,155,2.0,6.0,96,0.00,,,0.00,4.000000,,2013-07-21 11:43:00,
2013-07-21 07:52:00,69.0,68.0,-100.00,SSE,155,2.0,6.0,96,0.00,,,0.00,4.000000,,2013-07-21 11:52:00,
2013-07-21 08:01:00,69.0,68.0,-100.00,SSE,155,2.0,6.0,96,0.00,,,0.00,4.000000,,2013-07-21 12:01:00,
2013-07-21 08:32:00,72.0,70.0,-100.00,SSW,197,2.0,8.0,94,0.00,,,0.00,66.000000,,2013-07-21 12:32:00,
2013-07-21 08:43:00,72.0,70.0,-100.00,SSW,197,2.0,8.0,94,0.00,,,0.00,66.000000,,2013-07-21 12:43:00,
2013-07-21 08:53:00,72.0,70.0,-100.00,SSW,197,2.0,8.0,94,0.00,,,0.00,66.000000,,2013-07-21 12:53:00,
2013-07-21 09:02:00,72.0,70.0,-100.00,SSW,197,2.0,8.0,94,0.00,,,0.00,66.000000,,2013-07-21 13:02:00,
2013-07-21 09:33:00,75.0,70.0,-100.00,SSE,164,3.0,8.0,85,0.00,,,0.00,259.000000,,2013-07-21 13:33:00,
2013-07-21 09:43:00,75.0,70.0,-100.00,SSE,164,3.0,8.0,85,0.00,,,0.00,259.000000,,2013-07-21 13:43:00,
2013-07-21 09:53:00,75.0,70.0,-100.00,SSE,164,3.0,8.0,85,0.00,,,0.00,259.000000,,2013-07-21 13:53:00,
2013-07-21 10:01:00,75.0,70.0,-100.00,SSE,164,3.0,8.0,85,0.00,,,0.00,259.000000,,2013-07-21 14:01:00,
2013-07-21 10:32:00,76.0,70.0,-100.00,SW,221,4.0,6.0,81,0.00,,,0.00,369.000000,,2013-07-21 14:32:00,
2013-07-21 10:43:00,76.0,70.0,-100.00,SW,221,4.0,6.0,81,0.00,,,0.00,369.000000,,2013-07-21 14:43:00,
2013-07-21 10:53:00,76.0,70.0,-100.00,SW,221,4.0,6.0,81,0.00,,,0.00,369.000000,,2013-07-21 14:53:00,
2013-07-21 11:02:00,76.0,70.0,-100.00,SW,221,4.0,6.0,81,0.00,,,0.00,369.000000,,2013-07-21 15:02:00,
2013-07-21 11:32:00,78.0,71.0,-100.00,SSW,198,5.0,9.0,78,0.00,,,0.00,482.000000,,2013-07-21 15:32:00,
2013-07-21 11:43:00,78.0,71.0,-100.00,SSW,198,5.0,9.0,78,0.00,,,0.00,482.000000,,2013-07-21 15:43:00,
2013-07-21 11:53:00,78.0,71.0,-100.00,SSW,198,5.0,9.0,78,0.00,,,0.00,482.000000,,2013-07-21 15:53:00,
2013-07-21 12:01:00,78.0,71.0,-100.00,SSW,198,5.0,9.0,78,0.00,,,0.00,482.000000,,2013-07-21 16:01:00,
2013-07-21 12:32:00,81.0,71.0,-100.00,SW,217,5.0,9.0,71,0.00,,,0.00,712.000000,,2013-07-21 16:32:00,
2013-07-21 12:43:00,81.0,71.0,-100.00,SW,217,5.0,9.0,71,0.00,,,0.00,712.000000,,2013-07-21 16:43:00,
2013-07-21 12:52:00,81.0,71.0,-100.00,SW,217,5.0,9.0,71,0.00,,,0.00,712.000000,,2013-07-21 16:52:00,
2013-07-21 13:02:00,81.0,71.0,-100.00,SW,217,5.0,9.0,71,0.00,,,0.00,712.000000,,2013-07-21 17:02:00,
2013-07-21 13:33:00,82.0,69.0,-100.00,West,267,5.0,11.0,65,0.00,,,0.00,829.000000,,2013-07-21 17:33:00,
2013-07-21 13:43:00,82.0,69.0,-100.00,West,267,5.0,11.0,65,0.00,,,0.00,829.000000,,2013-07-21 17:43:00,
2013-07-21 13:53:00,82.0,69.0,-100.00,West,267,5.0,11.0,65,0.00,,,0.00,829.000000,,2013-07-21 17:53:00,
2013-07-21 14:01:00,82.0,69.0,-100.00,West,267,5.0,11.0,65,0.00,,,0.00,829.000000,,2013-07-21 18:01:00,
2013-07-21 14:32:00,84.0,69.0,-100.00,WSW,244,5.0,11.0,61,0.00,,,0.00,990.000000,,2013-07-21 18:32:00,
2013-07-21 14:43:00,84.0,69.0,-100.00,WSW,244,5.0,11.0,61,0.00,,,0.00,990.000000,,2013-07-21 18:43:00,
2013-07-21 14:52:00,84.0,69.0,-100.00,WSW,244,5.0,11.0,61,0.00,,,0.00,990.000000,,2013-07-21 18:52:00,
2013-07-21 15:01:00,84.0,69.0,-100.00,WSW,244,5.0,11.0,61,0.00,,,0.00,990.000000,,2013-07-21 19:01:00,
2013-07-21 15:32:00,80.0,68.0,-100.00,North,353,7.0,13.0,68,0.00,,,0.00,829.000000,,2013-07-21 19:32:00,
2013-07-21 15:42:00,80.0,68.0,-100.00,North,353,7.0,13.0,68,0.00,,,0.00,829.000000,,2013-07-21 19:42:00,
2013-07-21 15:52:00,80.0,68.0,-100.00,North,353,7.0,13.0,68,0.00,,,0.00,829.000000,,2013-07-21 19:52:00,
2013-07-21 16:02:00,80.0,68.0,-100.00,North,353,7.0,13.0,68,0.00,,,0.00,829.000000,,2013-07-21 20:02:00,
2013-07-21 16:32:00,77.0,70.0,-100.00,NNW,345,5.0,11.0,79,0.00,,,0.00,490.000000,,2013-07-21 20:32:00,
2013-07-21 16:43:00,77.0,70.0,-100.00,NNW,345,5.0,11.0,79,0.00,,,0.00,490.000000,,2013-07-21 20:43:00,
2013-07-21 16:52:00,77.0,70.0,-100.00,NNW,345,5.0,11.0,79,0.00,,,0.00,490.000000,,2013-07-21 20:52:00,
2013-07-21 17:01:00,77.0,70.0,-100.00,NNW,345,5.0,11.0,79,0.00,,,0.00,490.000000,,2013-07-21 21:01:00,
2013-07-21 17:43:00,70.0,68.0,-100.00,North,355,6.0,16.0,95,0.06,,,0.06,56.000000,,2013-07-21 21:43:00,
2013-07-21 17:52:00,70.0,68.0,-100.00,North,355,6.0,16.0,95,0.06,,,0.06,56.000000,,2013-07-21 21:52:00,
2013-07-21 18:01:00,70.0,68.0,-100.00,North,355,6.0,16.0,95,0.06,,,0.06,56.000000,,2013-07-21 22:01:00,
2013-07-21 18:32:00,70.0,69.0,-100.00,SW,217,0.0,10.0,97,0.05,,,0.11,75.000000,,2013-07-21 22:32:00,
2013-07-21 18:43:00,70.0,69.0,-100.00,SW,217,0.0,10.0,97,0.05,,,0.11,75.000000,,2013-07-21 22:43:00,
2013-07-21 18:52:00,70.0,69.0,-100.00,SW,217,0.0,10.0,97,0.05,,,0.11,75.000000,,2013-07-21 22:52:00,
2013-07-21 19:02:00,70.0,69.0,-100.00,SW,217,0.0,10.0,97,0.05,,,0.11,75.000000,,2013-07-21 23:02:00,
2013-07-21 19:32:00,72.0,71.0,-100.00,SSE,163,2.0,5.0,96,0.01,,,0.12,122.000000,,2013-07-21 23:32:00,
2013-07-21 19:43:00,72.0,71.0,-100.00,SSE,163,2.0,5.0,96,0.01,,,0.12,122.000000,,2013-07-21 23:43:00,
2013-07-21 19:53:00,72.0,71.0,-100.00,SSE,163,2.0,5.0,96,0.01,,,0.12,122.000000,,2013-07-21 23:53:00,
2013-07-21 20:01:00,72.0,71.0,-100.00,SSE,163,2.0,5.0,96,0.01,,,0.12,122.000000,,2013-07-22 00:01:00,
2013-07-21 20:32:00,71.0,69.0,-100.00,NW,322,0.0,5.0,95,0.00,,,0.12,77.000000,,2013-07-22 00:32:00,
2013-07-21 20:42:00,71.0,69.0,-100.00,NW,322,0.0,5.0,95,0.00,,,0.12,77.000000,,2013-07-22 00:42:00,
2013-07-21 20:53:00,71.0,69.0,-100.00,NW,322,0.0,5.0,95,0.00,,,0.12,77.000000,,2013-07-22 00:53:00,
2013-07-21 21:02:00,71.0,69.0,-100.00,NW,322,0.0,5.0,95,0.00,,,0.12,77.000000,,2013-07-22 01:02:00,
2013-07-21 21:32:00,69.0,68.0,-100.00,West,272,0.0,3.0,98,0.00,,,0.12,14.000000,,2013-07-22 01:32:00,
2013-07-21 21:42:00,69.0,68.0,-100.00,West,272,0.0,3.0,98,0.00,,,0.12,14.000000,,2013-07-22 01:42:00,
2013-07-21 21:52:00,69.0,68.0,-100.00,West,272,0.0,3.0,98,0.00,,,0.12,14.000000,,2013-07-22 01:52:00,
2013-07-21 22:02:00,69.0,68.0,-100.00,West,272,0.0,3.0,98,0.00,,,0.12,14.000000,,2013-07-22 02:02:00,
2013-07-21 22:32:00,68.0,67.0,-100.00,North,4,0.0,2.0,98,0.00,,,0.12,0.000000,,2013-07-22 02:32:00,
2013-07-21 22:43:00,68.0,67.0,-100.00,North,4,0.0,2.0,98,0.00,,,0.12,0.000000,,2013-07-22 02:43:00,
2013-07-21 22:52:00,68.0,67.0,-100.00,North,4,0.0,2.0,98,0.00,,,0.12,0.000000,,2013-07-22 02:52:00,
2013-07-21 23:01:00,68.0,67.0,-100.00,North,4,0.0,2.0,98,0.00,,,0.12,0.000000,,2013-07-22 03:01:00,
2013-07-21 23:33:00,69.0,69.0,-100.00,South,184,0.0,3.0,99,0.00,,,0.12,0.000000,,2013-07-22 03:33:00,
2013-07-21 23:43:00,69.0,69.0,-100.00,South,184,0.0,3.0,99,0.00,,,0.12,0.000000,,2013-07-22 03:43:00,
2013-07-21 23:53:00,69.0,69.0,-100.00,South,184,0.0,3.0,99,0.00,,,0.12,0.000000,,2013-07-22 03:53:00,